Find Starlink 37461

NORAD ID: 69173 Int'l Des: 2026-111 Owner: SPXS Country: US Constellation: starlink operational
LEOCIRCULAR

現在のビュー

3D地球を読み込み中...

About Starlink 37461

Starlink 37461 (NORAD 69173) is a starlink constellation satellite (v2 mini) launched May 21, 2026 by SPXS of US. It operates in LEO, CIRCULAR orbit with a mass of 575.00 kg.

次回通過

Passes for default location (London). Set your location on the main map for personalized predictions.

高度履歴

Loading altitude history...

軌道要素

1 69173U 26111AB 26238.17708879 .00026492 00000-0 79223-3 0 9994
2 69173 53.1597 183.9398 0001068 79.4652 280.6471 15.34408389 15017
Epoch: Aug 26, 2026 • Age: 13 hours

現在のステータス

高度 466.6 km
遠地点 / 近地点 N/A
速度 7.64 km/s
衛星直下点 44.37°N, 80.54°E
打ち上げ日 May 21, 2026
運用期間 0.2 years
タイプ internet

技術仕様

分類 Payload
質量 575.00 kg
乾燥質量 530.00 kg
総質量 575.00 kg
長さ 0.30 m
直径 4.10 m
スパン 29.00 m
形状 Box + pan
製造者 SPXS
バスタイプ Starlink V2MO
フェーズステータス In Orbit
所有者/国 SPXS/US

Most Searched